Regional Weather Roundup
Issued by NWS

Home | Current Version | Previous Version | Text Only | Print | Product List | Glossary On
Versions: 1 2 3 4 5 6 7 8 9 10 11 12 13 14 15 16 17 18 19 20 21 22 23 24 25 26 27 28 29 30 31 32 33 34 35 36 37 38 39 40 41 42 43 44 45 46 47 48 49 50
000
ASHW40 PHFO 210210
RWRHI

WEATHER ROUNDUP FOR HAWAII
NATIONAL WEATHER SERVICE HONOLULU HI
400 PM HST MON OCT 20 2014

THIS IS AN AUTOMATED REPORT THAT HAS NOT BEEN QUALITY CONTROLLED.

NOTE..."FAIR" INDICATES FEW OR NO CLOUDS BELOW 12,000 FEET WITH NO
SIGNIFICANT WEATHER AND/OR OBSTRUCTIONS TO VISIBILITY.

* - THESE SITES REPORT LIMITED FIELDS

HIZ001>004-210300-
KAUAI-NIIHAU-

CITY           SKY/WX    TMP DP  RH WIND       PRES   REMARKS
LIHUE APT      FAIR      80  72  76 E15       29.95F
PORT ALLEN*      N/A     79 N/A N/A E8          N/A
POIPU*           N/A     81 N/A N/A NE8G15      N/A
PRINCEVILLE*     N/A     34 N/A N/A MISG        N/A
KOKOLE POINT*  NOT AVBL
MOLOAA DAIRY*  NOT AVBL
WAIMEA HTS*    NOT AVBL
PUU OPAE*      NOT AVBL
PUU LUA*       NOT AVBL
MAKAHA RIDGE*  NOT AVBL
$$

HIZ005>011-210300-
OAHU-

CITY           SKY/WX    TMP DP  RH WIND       PRES   REMARKS
HONOLULU       PTSUNNY   84  70  62 NE16      29.93S
KALAELOA       FAIR      83  69  62 VRB7      29.94F
KANEOHE MCB    PTSUNNY   82  72  71 E9        29.95S
WHEELER FIELD  NOT AVBL
BELLOWS*       NOT AVBL
KAHUKU*        NOT AVBL
WHEELER*       NOT AVBL
WAIANAE HARBOR NOT AVBL
DILLINGHAM*      N/A     84  68  58 E6G14       N/A
KAHUKU TRN*      N/A     79  72  78 E10G21      N/A
KAWAILOA*        N/A     77  68  73 E8G20       N/A
KII*             N/A     81  73  78 E16         N/A
MAKUA RANGE*     N/A     84  70  61 SW2         N/A
OAHU FOREST NW NOT AVBL
SCHOFIELD BRK*   N/A     79  68  69 MISG        N/A
SCHOFIELD S*   NOT AVBL
WAIANAE VLY*   NOT AVBL
KUAOKALA*      NOT AVBL
HONOULIUULI*   NOT AVBL
MOKUOLOE IS*     N/A    N/A N/A N/A MISG        N/A
PALEHUA*       NOT AVBL
WAIAWA PHB*    NOT AVBL
$$

HIZ012>013-210300-
MOLOKAI-

CITY           SKY/WX    TMP DP  RH WIND       PRES   REMARKS
MOLOKAI AIRPT  FAIR      82  74  76 NE17G26   29.94F
KALAUPAPA      NOT AVBL
MAKAPULAPAI*   NOT AVBL
MOLOKAI 1*     NOT AVBL
PUU ALII*      NOT AVBL
$$

HIZ016-210300-
KAHOOLAWE-

CITY           SKY/WX    TMP DP  RH WIND       PRES   REMARKS
KAHOOLAWE*     NOT AVBL
HAKIOAWA*      NOT AVBL
HONOKANAIA*      N/A     85  65  50 NE21G33   29.94S
KANELOA*         N/A     81  70  69 E21G33    29.16S
KEALIALALO*    NOT AVBL
LUA MAKIKA*    NOT AVBL
$$

HIZ014>015-210300-
LANAI-

CITY           SKY/WX    TMP DP  RH WIND       PRES   REMARKS
LANAI CITY     PTSUNNY   84  69  60 W6        29.99F
LANAI 1*       NOT AVBL
$$

HIZ017>028-210300-
MAUI-

CITY           SKY/WX    TMP DP  RH WIND       PRES   REMARKS
KAHULUI        FAIR      86  70  58 E21G28    29.91F HX  90
KAPALUA-W MAUI LGT RAIN  82  68  61 NE14      29.92
HANA AIRPORT   PTSUNNY   81  72  74 CALM      29.99S
HANA*          NOT AVBL
HALEAKALA SUMM   N/A     55  30  38 E22         N/A
MAALAEA BAY*   NOT AVBL
HALEAKALA*     NOT AVBL
KAUPO GAP*     NOT AVBL
KULA 1*          N/A     62  58  88 NW5         N/A
$$

HIZ023>026-210300-
BIG ISLAND OF HAWAII COAST AND LOWER SLOPES-

CITY           SKY/WX    TMP DP  RH WIND       PRES   REMARKS
KAILUA KONA    CLOUDY    83  72  69 SW5       29.91S
HILO           CLOUDY    81  71  71 SE8       29.96S
HONOKAA*       NOT AVBL
KAWAIHAE MWT*  NOT AVBL
KAWAIHAE*        N/A     82 N/A N/A S3          N/A
SOUTH POINT*   NOT AVBL
UPOLU AIRPORT* NOT AVBL
KAMUELA*       MOCLDY    75  66  73 CALM      30.07R
HAKALAU*         N/A     70  39  32 S5G12       N/A
KALOKO-HONOKO* NOT AVBL
PALI 2*          N/A     79  -2   4 E10G24      N/A
KEALAKOMO*       N/A     84  70  61 E17G26      N/A
KAUPULEHU*     NOT AVBL
KAPAPALA*        N/A     73  68  84 E1G12       N/A
LOWER KAHUKU*  NOT AVBL
PUHE CS*       NOT AVBL
PUHO CS*       NOT AVBL
PTA KEAMUKU*     N/A     70  64  83 W9          N/A
WAIKOLOA*      NOT AVBL
$$

HIZ027>028-210300-
BIG ISLAND OF HAWAII INTERIOR AND SUMMMITS-

CITY           SKY/WX    TMP DP  RH WIND       PRES   REMARKS
BRADSHAW FIELD FAIR      70  33  25 S9G23     30.30R
MK VISITOR CEN NOT AVBL
MAUNA KEA*       N/A     43  10  26 S5          N/A
MAUNA LOA*     NOT AVBL
MAUNA LOA 1*   NOT AVBL
PTA KIPUKA*      N/A     66  61  82 N6G13       N/A
PTA RANGE 17*    N/A     64  59  82 NW10G18     N/A
PTA WEST*        N/A     66  63  88 VRB10G16    N/A
NENE CABIN*    NOT AVBL
AHUMOA*        NOT AVBL
PTA PORTABLE*  NOT AVBL
PUU MALI*      NOT AVBL
$$

HIC003-210300-
NORTHWEST ISLANDS-

CITY           SKY/WX    TMP DP  RH WIND       PRES   REMARKS
MIDWAY ISLAND  SUNNY     84  77  79 S13       29.93F HX  94
MIDWAY NOS*    NOT AVBL
FRENCH FRIGATE NOT AVBL
$$

PHZ110>124-180-210300-
BUOY REPORTS

STATION/POSITION TIME  TEMP    WIND        PRES    WAVE   SWELL
                       AIR SEA DIR/SP/G            HT/PER HT/DIR
                 (UTC) (F)     (DEG/KT/KT) (MB)    (FT/S) (FT/D)
BUOY 51001       NOT AVBL
BUOY 51101       NOT AVBL
BUOY 51100       0200   79 80   80/ 17/ 21 1015.9F
BUOY 51003       0100   82 82  120/ 19/ 21 1011.2F   9/ 7   3
BUOY 51004       0148   79 81   70/ 16/ 21 1012.9R   8/15   7/340
BARBERS PT BUOY  NOT AVBL
WAIMEA BAY BUOY  0200      82                N/A     7/13   5/340
KAILUA BAY BUOY  0200      82                N/A     9/ 8   3/350
LANAI BUOY       0200      82                N/A     3/13   2/290
BARBERS PT 2     0100      81                N/A     5/ 7   3/300
PAUWELA MAUI     0200      81                N/A     8/13
HILO             0200      81                N/A     8/11   5/340
KANEOHE BAY BUOY NOT AVBL
HANALEI KAUAI    NOT AVBL
KAHULUI HARBOR   0100      80                N/A
HONOLULU HARBOR  0100           60/  5/ 13   N/A
KILO NALU        NOT AVBL
HILO HARBOR      0100          140/  9/ 12   N/A
MOKUOLOE         0100      82                N/A
NAWILIWILI       0100      81                N/A
WHOTS BUOY       NOT AVBL
BUOY 51028       NOT AVBL
$$

......................KEY........................................
  SKY/WX - SKY CONDITIONS/PRESENT WEATHER
  TMP    - TEMPERATURE IN FAHRENHEIT
  DWPT   - DEWPOINT IN FAHRENHEIT
  RH     - RELATIVE HUMIDITY IN PERCENT
  WIND   - DIRECTION AND SPEED /MPH FOR ISLANDS...KTS FOR BUOYS/
  PRES   - MEAN SEA LEVEL PRESSURE IN INCHES OF HG
  VSB    - VISIBILITY IN MILES
  HX     - HEAT INDEX
  WCI    - WIND CHILL INDEX
  VRB    - VARIABLE WIND DIRECTION
  N/A    - NOT AVAILABLE



USA.gov is the U.S. government's official web portal to all federal, state and local government web resources and services.